iso_date,epoch_date,Year,Hour,Min,DOY,POS_DOY,Lat,Lon,BP,Ts,Ta,has_bp,has_ts,has_ta,BuoyID,Buoy_Type,Buoy_Owner,Logistics,Hemisphere
2015-07-29T16:59:31Z,1438189171,2015,17,0,210.708,210.708,71.25105,-140.51361,1024.0,-0.01,-999.0,yes,yes,no,300234062065260,UPTEMPO,PSC-UPTEMPO,SIZRS,North
2015-07-29T17:09:36Z,1438189776,2015,17,0,210.715,210.715,71.25073,-140.51425,1016.5,0.08,-999.0,yes,yes,no,300234062065260,UPTEMPO,PSC-UPTEMPO,SIZRS,North
2015-07-29T17:19:40Z,1438190381,2015,17,0,210.722,210.722,71.2505,-140.51489,1016.6,-0.03,-999.0,yes,yes,no,300234062065260,UPTEMPO,PSC-UPTEMPO,SIZRS,North
2015-07-29T17:29:45Z,1438190986,2015,17,0,210.729,210.729,71.2503,-140.51531,1016.7,0.1,-999.0,yes,yes,no,300234062065260,UPTEMPO,PSC-UPTEMPO,SIZRS,North
2015-07-29T17:39:50Z,1438191590,2015,17,0,210.736,210.736,71.25008,-140.5154,1016.7,-0.2,-999.0,yes,yes,no,300234062065260,UPTEMPO,PSC-UPTEMPO,SIZRS,North
2015-07-29T17:49:55Z,1438192195,2015,17,0,210.743,210.743,71.24985,-140.51538,1016.8,-0.14,-999.0,yes,yes,no,300234062065260,UPTEMPO,PSC-UPTEMPO,SIZRS,North
2015-07-29T18:00:00Z,1438192800,2015,18,0,210.75,210.75,71.2496,-140.51529,1017.0,-0.25,-999.0,yes,yes,no,300234062065260,UPTEMPO,PSC-UPTEMPO,SIZRS,North
2015-07-29T18:10:04Z,1438193405,2015,18,0,210.757,210.757,71.24937,-140.51506,1017.0,0.23,-999.0,yes,yes,no,300234062065260,UPTEMPO,PSC-UPTEMPO,SIZRS,North
2015-07-29T18:20:09Z,1438194010,2015,18,0,210.764,210.764,71.24916,-140.51477,1017.1,0.58,-999.0,yes,yes,no,300234062065260,UPTEMPO,PSC-UPTEMPO,SIZRS,North
2015-07-29T18:30:14Z,1438194614,2015,18,0,210.771,210.771,71.24887,-140.51448,1017.2,0.88,-999.0,yes,yes,no,300234062065260,UPTEMPO,PSC-UPTEMPO,SIZRS,North
2015-07-29T18:40:19Z,1438195219,2015,18,0,210.778,210.778,71.24852,-140.51413,1017.3,1.15,-999.0,yes,yes,no,300234062065260,UPTEMPO,PSC-UPTEMPO,SIZRS,North
2015-07-29T18:50:24Z,1438195824,2015,18,0,210.785,210.785,71.24815,-140.5141,1017.4,1.43,-999.0,yes,yes,no,300234062065260,UPTEMPO,PSC-UPTEMPO,SIZRS,North
2015-07-29T19:00:28Z,1438196429,2015,19,0,210.792,210.792,71.2477,-140.51392,1017.5,1.45,-999.0,yes,yes,no,300234062065260,UPTEMPO,PSC-UPTEMPO,SIZRS,North
2015-07-29T19:10:33Z,1438197034,2015,19,0,210.799,210.799,71.24729,-140.51358,1017.6,1.5,-999.0,yes,yes,no,300234062065260,UPTEMPO,PSC-UPTEMPO,SIZRS,North
2015-07-29T19:19:12Z,1438197552,2015,19,0,210.805,210.805,71.2469,-140.51318,1017.7,1.49,-999.0,yes,yes,no,300234062065260,UPTEMPO,PSC-UPTEMPO,SIZRS,North
2015-07-29T19:29:16Z,1438198157,2015,19,0,210.812,210.812,71.24657,-140.51276,1017.8,1.52,-999.0,yes,yes,no,300234062065260,UPTEMPO,PSC-UPTEMPO,SIZRS,North
2015-07-29T19:40:48Z,1438198848,2015,19,0,210.82,210.82,71.2462,-140.51231,1017.9,1.5,-999.0,yes,yes,no,300234062065260,UPTEMPO,PSC-UPTEMPO,SIZRS,North
2015-07-29T19:49:26Z,1438199366,2015,19,0,210.826,210.826,71.24584,-140.51198,1017.9,1.56,-999.0,yes,yes,no,300234062065260,UPTEMPO,PSC-UPTEMPO,SIZRS,North
2015-07-29T19:59:31Z,1438199971,2015,20,0,210.833,210.833,71.24546,-140.5117,1018.0,1.54,-999.0,yes,yes,no,300234062065260,UPTEMPO,PSC-UPTEMPO,SIZRS,North
2015-07-29T20:09:36Z,1438200576,2015,20,0,210.84,210.84,71.24502,-140.51126,1018.1,1.48,-999.0,yes,yes,no,300234062065260,UPTEMPO,PSC-UPTEMPO,SIZRS,North
2015-07-29T20:19:40Z,1438201181,2015,20,0,210.847,210.847,71.2445,-140.51092,1018.2,1.31,-999.0,yes,yes,no,300234062065260,UPTEMPO,PSC-UPTEMPO,SIZRS,North
2015-07-29T20:29:45Z,1438201786,2015,20,0,210.854,210.854,71.24398,-140.51086,1018.3,1.26,-999.0,yes,yes,no,300234062065260,UPTEMPO,PSC-UPTEMPO,SIZRS,North
2015-07-29T20:39:50Z,1438202390,2015,20,0,210.861,210.861,71.24345,-140.51085,1018.3,1.22,-999.0,yes,yes,no,300234062065260,UPTEMPO,PSC-UPTEMPO,SIZRS,North
2015-07-29T20:49:55Z,1438202995,2015,20,0,210.868,210.868,71.24284,-140.51099,1018.5,1.42,-999.0,yes,yes,no,300234062065260,UPTEMPO,PSC-UPTEMPO,SIZRS,North
2015-07-29T21:00:00Z,1438203600,2015,21,0,210.875,210.875,71.24221,-140.51108,1018.5,1.27,-999.0,yes,yes,no,300234062065260,UPTEMPO,PSC-UPTEMPO,SIZRS,North
2015-07-29T21:10:04Z,1438204205,2015,21,0,210.882,210.882,71.24158,-140.51114,1018.7,1.52,-999.0,yes,yes,no,300234062065260,UPTEMPO,PSC-UPTEMPO,SIZRS,North
2015-07-29T22:00:28Z,1438207229,2015,22,0,210.917,210.917,71.23807,-140.51231,1019.1,1.26,-999.0,yes,yes,no,300234062065260,UPTEMPO,PSC-UPTEMPO,SIZRS,North
2015-07-29T22:59:31Z,1438210771,2015,23,0,210.958,210.958,71.23402,-140.51904,1019.5,0.99,-999.0,yes,yes,no,300234062065260,UPTEMPO,PSC-UPTEMPO,SIZRS,North
2015-07-30T00:00:00Z,1438214400,2015,0,0,211.0,211.0,71.23012,-140.52994,1019.8,1.03,-999.0,yes,yes,no,300234062065260,UPTEMPO,PSC-UPTEMPO,SIZRS,North
2015-07-30T01:00:28Z,1438218029,2015,1,0,211.042,211.042,71.22695,-140.54094,1020.0,1.67,-999.0,yes,yes,no,300234062065260,UPTEMPO,PSC-UPTEMPO,SIZRS,North
2015-07-30T01:59:31Z,1438221571,2015,2,0,211.083,211.083,71.22363,-140.55174,1020.2,1.79,-999.0,yes,yes,no,300234062065260,UPTEMPO,PSC-UPTEMPO,SIZRS,North
2015-07-30T03:00:00Z,1438225200,2015,3,0,211.125,211.125,71.21981,-140.56401,1020.5,1.73,-999.0,yes,yes,no,300234062065260,UPTEMPO,PSC-UPTEMPO,SIZRS,North
2015-07-30T04:00:28Z,1438228829,2015,4,0,211.167,211.167,71.21637,-140.57913,1020.8,1.68,-999.0,yes,yes,no,300234062065260,UPTEMPO,PSC-UPTEMPO,SIZRS,North
2015-07-30T04:59:31Z,1438232371,2015,5,0,211.208,211.208,71.21398,-140.59518,1021.0,1.16,-999.0,yes,yes,no,300234062065260,UPTEMPO,PSC-UPTEMPO,SIZRS,North
2015-07-30T06:00:00Z,1438236000,2015,6,0,211.25,211.25,71.21241,-140.60886,1021.3,1.32,-999.0,yes,yes,no,300234062065260,UPTEMPO,PSC-UPTEMPO,SIZRS,North
2015-07-30T07:00:28Z,1438239629,2015,7,0,211.292,211.292,71.21178,-140.61919,1021.4,1.49,-999.0,yes,yes,no,300234062065260,UPTEMPO,PSC-UPTEMPO,SIZRS,North
2015-07-30T07:59:31Z,1438243171,2015,8,0,211.333,211.333,71.21127,-140.62592,1021.5,1.4,-999.0,yes,yes,no,300234062065260,UPTEMPO,PSC-UPTEMPO,SIZRS,North
2015-07-30T09:00:00Z,1438246800,2015,9,0,211.375,211.375,71.20998,-140.62816,1021.7,1.36,-999.0,yes,yes,no,300234062065260,UPTEMPO,PSC-UPTEMPO,SIZRS,North
2015-07-30T10:00:28Z,1438250429,2015,10,0,211.417,211.417,71.20792,-140.62822,1021.9,1.38,-999.0,yes,yes,no,300234062065260,UPTEMPO,PSC-UPTEMPO,SIZRS,North
2015-07-30T10:59:31Z,1438253971,2015,11,0,211.458,211.458,71.20509,-140.62926,1022.0,0.87,-999.0,yes,yes,no,300234062065260,UPTEMPO,PSC-UPTEMPO,SIZRS,North
2015-07-30T12:00:00Z,1438257600,2015,12,0,211.5,211.5,71.2029,-140.6302,1021.9,0.92,-999.0,yes,yes,no,300234062065260,UPTEMPO,PSC-UPTEMPO,SIZRS,North
2015-07-30T13:00:28Z,1438261229,2015,13,0,211.542,211.542,71.19969,-140.63362,1021.9,1.07,-999.0,yes,yes,no,300234062065260,UPTEMPO,PSC-UPTEMPO,SIZRS,North
2015-07-30T13:59:31Z,1438264771,2015,14,0,211.583,211.583,71.19672,-140.63977,1021.9,1.49,-999.0,yes,yes,no,300234062065260,UPTEMPO,PSC-UPTEMPO,SIZRS,North
2015-07-30T15:00:00Z,1438268400,2015,15,0,211.625,211.625,71.19338,-140.64619,1022.0,1.52,-999.0,yes,yes,no,300234062065260,UPTEMPO,PSC-UPTEMPO,SIZRS,North
2015-07-30T16:00:28Z,1438272029,2015,16,0,211.667,211.667,71.19135,-140.65562,1022.0,1.2,-999.0,yes,yes,no,300234062065260,UPTEMPO,PSC-UPTEMPO,SIZRS,North
2015-07-30T16:59:31Z,1438275571,2015,17,0,211.708,211.708,71.19103,-140.66533,1022.1,0.36,-999.0,yes,yes,no,300234062065260,UPTEMPO,PSC-UPTEMPO,SIZRS,North
2015-07-30T18:00:00Z,1438279200,2015,18,0,211.75,211.75,71.19153,-140.67368,1022.1,0.35,-999.0,yes,yes,no,300234062065260,UPTEMPO,PSC-UPTEMPO,SIZRS,North
2015-07-30T19:00:28Z,1438282829,2015,19,0,211.792,211.792,71.19315,-140.67889,1021.8,0.33,-999.0,yes,yes,no,300234062065260,UPTEMPO,PSC-UPTEMPO,SIZRS,North
2015-07-30T19:59:31Z,1438286371,2015,20,0,211.833,211.833,71.19308,-140.68355,1022.0,0.5,-999.0,yes,yes,no,300234062065260,UPTEMPO,PSC-UPTEMPO,SIZRS,North
2015-07-30T21:00:00Z,1438290000,2015,21,0,211.875,211.875,71.19273,-140.68434,1022.0,0.68,-999.0,yes,yes,no,300234062065260,UPTEMPO,PSC-UPTEMPO,SIZRS,North
2015-07-30T22:00:28Z,1438293629,2015,22,0,211.917,211.917,71.19299,-140.67935,1021.8,0.76,-999.0,yes,yes,no,300234062065260,UPTEMPO,PSC-UPTEMPO,SIZRS,North
2015-07-30T22:59:31Z,1438297171,2015,23,0,211.958,211.958,71.1918,-140.67651,1021.8,0.92,-999.0,yes,yes,no,300234062065260,UPTEMPO,PSC-UPTEMPO,SIZRS,North
2015-07-31T00:00:00Z,1438300800,2015,0,0,212.0,212.0,71.18996,-140.67541,1021.6,1.01,-999.0,yes,yes,no,300234062065260,UPTEMPO,PSC-UPTEMPO,SIZRS,North
2015-07-31T01:00:28Z,1438304429,2015,1,0,212.042,212.042,71.18804,-140.67656,1021.3,0.78,-999.0,yes,yes,no,300234062065260,UPTEMPO,PSC-UPTEMPO,SIZRS,North
2015-07-31T01:59:31Z,1438307971,2015,2,0,212.083,212.083,71.18687,-140.67807,1021.1,0.88,-999.0,yes,yes,no,300234062065260,UPTEMPO,PSC-UPTEMPO,SIZRS,North
2015-07-31T03:00:00Z,1438311600,2015,3,0,212.125,212.125,71.18415,-140.68069,1020.8,0.59,-999.0,yes,yes,no,300234062065260,UPTEMPO,PSC-UPTEMPO,SIZRS,North
2015-07-31T04:00:28Z,1438315229,2015,4,0,212.167,212.167,71.18192,-140.68671,1020.7,0.43,-999.0,yes,yes,no,300234062065260,UPTEMPO,PSC-UPTEMPO,SIZRS,North
2015-07-31T04:59:31Z,1438318771,2015,5,0,212.208,212.208,71.18005,-140.69897,1020.5,0.07,-999.0,yes,yes,no,300234062065260,UPTEMPO,PSC-UPTEMPO,SIZRS,North
2015-07-31T06:00:00Z,1438322400,2015,6,0,212.25,212.25,71.17833,-140.71606,1020.3,0.7,-999.0,yes,yes,no,300234062065260,UPTEMPO,PSC-UPTEMPO,SIZRS,North
2015-07-31T07:00:28Z,1438326029,2015,7,0,212.292,212.292,71.17625,-140.73677,1020.0,0.67,-999.0,yes,yes,no,300234062065260,UPTEMPO,PSC-UPTEMPO,SIZRS,North
2015-07-31T07:59:31Z,1438329571,2015,8,0,212.333,212.333,71.17458,-140.76326,1019.7,0.35,-999.0,yes,yes,no,300234062065260,UPTEMPO,PSC-UPTEMPO,SIZRS,North
2015-07-31T09:00:00Z,1438333200,2015,9,0,212.375,212.375,71.1741,-140.78749,1019.3,-0.3,-999.0,yes,yes,no,300234062065260,UPTEMPO,PSC-UPTEMPO,SIZRS,North
2015-07-31T10:00:28Z,1438336829,2015,10,0,212.417,212.417,71.17459,-140.80705,1018.8,-0.13,-999.0,yes,yes,no,300234062065260,UPTEMPO,PSC-UPTEMPO,SIZRS,North
2015-07-31T10:59:31Z,1438340371,2015,11,0,212.458,212.458,71.17574,-140.82063,1018.7,-0.6,-999.0,yes,yes,no,300234062065260,UPTEMPO,PSC-UPTEMPO,SIZRS,North
2015-07-31T12:00:00Z,1438344000,2015,12,0,212.5,212.5,71.17861,-140.83511,1018.3,-0.56,-999.0,yes,yes,no,300234062065260,UPTEMPO,PSC-UPTEMPO,SIZRS,North
2015-07-31T13:00:28Z,1438347629,2015,13,0,212.542,212.542,71.18021,-140.84494,1017.9,-0.67,-999.0,yes,yes,no,300234062065260,UPTEMPO,PSC-UPTEMPO,SIZRS,North
2015-07-31T13:59:31Z,1438351171,2015,14,0,212.583,212.583,71.17912,-140.85295,1017.3,-0.64,-999.0,yes,yes,no,300234062065260,UPTEMPO,PSC-UPTEMPO,SIZRS,North
2015-07-31T15:00:00Z,1438354800,2015,15,0,212.625,212.625,71.17746,-140.86291,1016.9,-0.67,-999.0,yes,yes,no,300234062065260,UPTEMPO,PSC-UPTEMPO,SIZRS,North
2015-07-31T16:00:28Z,1438358429,2015,16,0,212.667,212.667,71.17569,-140.87685,1016.4,-0.05,-999.0,yes,yes,no,300234062065260,UPTEMPO,PSC-UPTEMPO,SIZRS,North
2015-07-31T16:59:31Z,1438361971,2015,17,0,212.708,212.708,71.17156,-140.89555,1016.1,-0.2,-999.0,yes,yes,no,300234062065260,UPTEMPO,PSC-UPTEMPO,SIZRS,North
2015-07-31T18:00:00Z,1438365600,2015,18,0,212.75,212.75,71.16682,-140.92029,1015.5,0.28,-999.0,yes,yes,no,300234062065260,UPTEMPO,PSC-UPTEMPO,SIZRS,North
2015-07-31T19:00:28Z,1438369229,2015,19,0,212.792,212.792,71.16421,-140.94688,1015.0,-0.12,-999.0,yes,yes,no,300234062065260,UPTEMPO,PSC-UPTEMPO,SIZRS,North
2015-07-31T19:59:31Z,1438372771,2015,20,0,212.833,212.833,71.16381,-140.97374,1014.5,-0.28,-999.0,yes,yes,no,300234062065260,UPTEMPO,PSC-UPTEMPO,SIZRS,North
2015-07-31T21:00:00Z,1438376400,2015,21,0,212.875,212.875,71.1664,-140.99918,1013.9,0.09,-999.0,yes,yes,no,300234062065260,UPTEMPO,PSC-UPTEMPO,SIZRS,North
2015-07-31T22:00:28Z,1438380029,2015,22,0,212.917,212.917,71.16999,-141.01888,1013.3,0.25,-999.0,yes,yes,no,300234062065260,UPTEMPO,PSC-UPTEMPO,SIZRS,North
2015-07-31T22:59:31Z,1438383571,2015,23,0,212.958,212.958,71.17452,-141.02922,1013.0,0.23,-999.0,yes,yes,no,300234062065260,UPTEMPO,PSC-UPTEMPO,SIZRS,North
2015-08-01T00:00:00Z,1438387200,2015,0,0,213.0,213.0,71.17883,-141.03406,1012.5,0.44,-999.0,yes,yes,no,300234062065260,UPTEMPO,PSC-UPTEMPO,SIZRS,North
2015-08-01T01:00:28Z,1438390829,2015,1,0,213.042,213.042,71.1825,-141.03349,1011.9,0.68,-999.0,yes,yes,no,300234062065260,UPTEMPO,PSC-UPTEMPO,SIZRS,North
2015-08-01T01:59:31Z,1438394371,2015,2,0,213.083,213.083,71.18489,-141.03041,1011.2,0.72,-999.0,yes,yes,no,300234062065260,UPTEMPO,PSC-UPTEMPO,SIZRS,North
2015-08-01T03:00:00Z,1438398000,2015,3,0,213.125,213.125,71.18478,-141.02724,1010.3,1.23,-999.0,yes,yes,no,300234062065260,UPTEMPO,PSC-UPTEMPO,SIZRS,North
2015-08-01T04:00:28Z,1438401629,2015,4,0,213.167,213.167,71.18194,-141.02817,1009.7,-0.06,-999.0,yes,yes,no,300234062065260,UPTEMPO,PSC-UPTEMPO,SIZRS,North
2015-08-01T04:59:31Z,1438405171,2015,5,0,213.208,213.208,71.1782,-141.03503,1009.1,0.01,-999.0,yes,yes,no,300234062065260,UPTEMPO,PSC-UPTEMPO,SIZRS,North
2015-08-01T06:00:00Z,1438408800,2015,6,0,213.25,213.25,71.1745,-141.04932,1008.7,-0.05,-999.0,yes,yes,no,300234062065260,UPTEMPO,PSC-UPTEMPO,SIZRS,North
2015-08-01T07:00:28Z,1438412429,2015,7,0,213.292,213.292,71.17191,-141.06398,1008.5,-0.56,-999.0,yes,yes,no,300234062065260,UPTEMPO,PSC-UPTEMPO,SIZRS,North
2015-08-01T07:59:31Z,1438415971,2015,8,0,213.333,213.333,71.1706,-141.07916,1008.1,-0.81,-999.0,yes,yes,no,300234062065260,UPTEMPO,PSC-UPTEMPO,SIZRS,North
2015-08-01T09:00:00Z,1438419600,2015,9,0,213.375,213.375,71.17142,-141.0918,1008.0,-0.13,-999.0,yes,yes,no,300234062065260,UPTEMPO,PSC-UPTEMPO,SIZRS,North
2015-08-01T10:00:28Z,1438423229,2015,10,0,213.417,213.417,71.17326,-141.09361,1007.7,0.0,-999.0,yes,yes,no,300234062065260,UPTEMPO,PSC-UPTEMPO,SIZRS,North
2015-08-01T10:59:31Z,1438426771,2015,11,0,213.458,213.458,71.17439,-141.08292,1007.8,-0.09,-999.0,yes,yes,no,300234062065260,UPTEMPO,PSC-UPTEMPO,SIZRS,North
2015-08-01T12:00:00Z,1438430400,2015,12,0,213.5,213.5,71.17348,-141.06277,1007.3,-0.08,-999.0,yes,yes,no,300234062065260,UPTEMPO,PSC-UPTEMPO,SIZRS,North
2015-08-01T13:00:28Z,1438434029,2015,13,0,213.542,213.542,71.16994,-141.03815,1007.0,-0.03,-999.0,yes,yes,no,300234062065260,UPTEMPO,PSC-UPTEMPO,SIZRS,North
2015-08-01T13:59:31Z,1438437571,2015,14,0,213.583,213.583,71.16337,-141.0117,1006.8,-0.42,-999.0,yes,yes,no,300234062065260,UPTEMPO,PSC-UPTEMPO,SIZRS,North
2015-08-01T15:00:00Z,1438441200,2015,15,0,213.625,213.625,71.15407,-140.98915,1007.2,-0.12,-999.0,yes,yes,no,300234062065260,UPTEMPO,PSC-UPTEMPO,SIZRS,North
2015-08-01T16:00:28Z,1438444829,2015,16,0,213.667,213.667,71.14164,-140.97206,1007.9,-0.57,-999.0,yes,yes,no,300234062065260,UPTEMPO,PSC-UPTEMPO,SIZRS,North
2015-08-01T16:59:31Z,1438448371,2015,17,0,213.708,213.708,71.12728,-140.96881,1008.7,-0.69,-999.0,yes,yes,no,300234062065260,UPTEMPO,PSC-UPTEMPO,SIZRS,North
2015-08-01T18:00:00Z,1438452000,2015,18,0,213.75,213.75,71.11203,-140.98448,1009.7,-0.86,-999.0,yes,yes,no,300234062065260,UPTEMPO,PSC-UPTEMPO,SIZRS,North
2015-08-01T19:00:28Z,1438455629,2015,19,0,213.792,213.792,71.09867,-141.01906,1010.8,-0.83,-999.0,yes,yes,no,300234062065260,UPTEMPO,PSC-UPTEMPO,SIZRS,North
2015-08-01T19:59:31Z,1438459171,2015,20,0,213.833,213.833,71.08635,-141.06212,1012.1,-0.42,-999.0,yes,yes,no,300234062065260,UPTEMPO,PSC-UPTEMPO,SIZRS,North
2015-08-01T21:00:00Z,1438462800,2015,21,0,213.875,213.875,71.07581,-141.11226,1013.1,-0.98,-999.0,yes,yes,no,300234062065260,UPTEMPO,PSC-UPTEMPO,SIZRS,North
2015-08-01T22:00:28Z,1438466429,2015,22,0,213.917,213.917,71.06959,-141.16277,1014.0,-0.99,-999.0,yes,yes,no,300234062065260,UPTEMPO,PSC-UPTEMPO,SIZRS,North
2015-08-01T22:59:31Z,1438469971,2015,23,0,213.958,213.958,71.0655,-141.2097,1014.8,-0.78,-999.0,yes,yes,no,300234062065260,UPTEMPO,PSC-UPTEMPO,SIZRS,North
2015-08-02T00:00:00Z,1438473600,2015,0,0,214.0,214.0,71.06377,-141.24823,1015.6,-0.95,-999.0,yes,yes,no,300234062065260,UPTEMPO,PSC-UPTEMPO,SIZRS,North
2015-08-02T01:00:28Z,1438477229,2015,1,0,214.042,214.042,71.06525,-141.2854,1016.3,-0.32,-999.0,yes,yes,no,300234062065260,UPTEMPO,PSC-UPTEMPO,SIZRS,North
2015-08-02T01:59:31Z,1438480771,2015,2,0,214.083,214.083,71.06686,-141.31566,1016.9,-0.33,-999.0,yes,yes,no,300234062065260,UPTEMPO,PSC-UPTEMPO,SIZRS,North
2015-08-02T03:00:00Z,1438484400,2015,3,0,214.125,214.125,71.06814,-141.33984,1017.3,-0.6,-999.0,yes,yes,no,300234062065260,UPTEMPO,PSC-UPTEMPO,SIZRS,North
2015-08-02T04:00:28Z,1438488029,2015,4,0,214.167,214.167,71.06893,-141.35873,1017.4,-0.76,-999.0,yes,yes,no,300234062065260,UPTEMPO,PSC-UPTEMPO,SIZRS,North
2015-08-02T04:59:31Z,1438491571,2015,5,0,214.208,214.208,71.0686,-141.37375,1017.6,-0.79,-999.0,yes,yes,no,300234062065260,UPTEMPO,PSC-UPTEMPO,SIZRS,North
2015-08-02T06:00:00Z,1438495200,2015,6,0,214.25,214.25,71.06614,-141.38551,1017.7,-0.91,-999.0,yes,yes,no,300234062065260,UPTEMPO,PSC-UPTEMPO,SIZRS,North
2015-08-02T07:00:28Z,1438498829,2015,7,0,214.292,214.292,71.06181,-141.39877,1017.4,-1.04,-999.0,yes,yes,no,300234062065260,UPTEMPO,PSC-UPTEMPO,SIZRS,North
2015-08-02T07:59:31Z,1438502371,2015,8,0,214.333,214.333,71.05683,-141.41734,1017.4,-1.09,-999.0,yes,yes,no,300234062065260,UPTEMPO,PSC-UPTEMPO,SIZRS,North
2015-08-02T09:00:00Z,1438506000,2015,9,0,214.375,214.375,71.05242,-141.44241,1017.3,-1.15,-999.0,yes,yes,no,300234062065260,UPTEMPO,PSC-UPTEMPO,SIZRS,North
2015-08-02T10:00:28Z,1438509629,2015,10,0,214.417,214.417,71.04939,-141.47302,1017.1,-1.16,-999.0,yes,yes,no,300234062065260,UPTEMPO,PSC-UPTEMPO,SIZRS,North
2015-08-02T10:59:31Z,1438513171,2015,11,0,214.458,214.458,71.04813,-141.50832,1016.8,-1.19,-999.0,yes,yes,no,300234062065260,UPTEMPO,PSC-UPTEMPO,SIZRS,North
2015-08-02T12:00:00Z,1438516800,2015,12,0,214.5,214.5,71.04946,-141.5462,1016.6,-1.16,-999.0,yes,yes,no,300234062065260,UPTEMPO,PSC-UPTEMPO,SIZRS,North
2015-08-02T13:00:28Z,1438520429,2015,13,0,214.542,214.542,71.05379,-141.57875,1016.2,-1.21,-999.0,yes,yes,no,300234062065260,UPTEMPO,PSC-UPTEMPO,SIZRS,North
2015-08-02T13:59:31Z,1438523971,2015,14,0,214.583,214.583,71.05978,-141.60254,1015.8,-0.91,-999.0,yes,yes,no,300234062065260,UPTEMPO,PSC-UPTEMPO,SIZRS,North
2015-08-02T15:00:00Z,1438527600,2015,15,0,214.625,214.625,71.06498,-141.61621,1015.5,-1.02,-999.0,yes,yes,no,300234062065260,UPTEMPO,PSC-UPTEMPO,SIZRS,North
2015-08-02T16:00:28Z,1438531229,2015,16,0,214.667,214.667,71.068,-141.62285,1015.0,-1.01,-999.0,yes,yes,no,300234062065260,UPTEMPO,PSC-UPTEMPO,SIZRS,North
2015-08-02T16:59:31Z,1438534771,2015,17,0,214.708,214.708,71.06829,-141.62932,1014.9,-0.34,-999.0,yes,yes,no,300234062065260,UPTEMPO,PSC-UPTEMPO,SIZRS,North
2015-08-02T18:00:00Z,1438538400,2015,18,0,214.75,214.75,71.06604,-141.64075,1014.2,-0.38,-999.0,yes,yes,no,300234062065260,UPTEMPO,PSC-UPTEMPO,SIZRS,North
2015-08-02T19:00:28Z,1438542029,2015,19,0,214.792,214.792,71.06261,-141.65796,1013.7,-0.7,-999.0,yes,yes,no,300234062065260,UPTEMPO,PSC-UPTEMPO,SIZRS,North
2015-08-02T19:59:31Z,1438545571,2015,20,0,214.833,214.833,71.05871,-141.68214,1013.5,-0.67,-999.0,yes,yes,no,300234062065260,UPTEMPO,PSC-UPTEMPO,SIZRS,North
2015-08-02T21:00:00Z,1438549200,2015,21,0,214.875,214.875,71.05548,-141.71239,1013.3,-0.64,-999.0,yes,yes,no,300234062065260,UPTEMPO,PSC-UPTEMPO,SIZRS,North
2015-08-02T22:00:28Z,1438552829,2015,22,0,214.917,214.917,71.05275,-141.74661,1013.1,-0.52,-999.0,yes,yes,no,300234062065260,UPTEMPO,PSC-UPTEMPO,SIZRS,North
2015-08-02T22:59:31Z,1438556371,2015,23,0,214.958,214.958,71.05127,-141.78148,1012.9,-0.64,-999.0,yes,yes,no,300234062065260,UPTEMPO,PSC-UPTEMPO,SIZRS,North
2015-08-03T00:00:00Z,1438560000,2015,0,0,215.0,215.0,71.05208,-141.81386,1012.7,-0.87,-999.0,yes,yes,no,300234062065260,UPTEMPO,PSC-UPTEMPO,SIZRS,North
2015-08-03T01:00:28Z,1438563629,2015,1,0,215.042,215.042,71.05454,-141.84291,1011.9,-0.82,-999.0,yes,yes,no,300234062065260,UPTEMPO,PSC-UPTEMPO,SIZRS,North
2015-08-03T01:59:31Z,1438567171,2015,2,0,215.083,215.083,71.05773,-141.86856,1011.6,-0.78,-999.0,yes,yes,no,300234062065260,UPTEMPO,PSC-UPTEMPO,SIZRS,North
2015-08-03T03:00:00Z,1438570800,2015,3,0,215.125,215.125,71.06118,-141.88948,1011.0,-0.65,-999.0,yes,yes,no,300234062065260,UPTEMPO,PSC-UPTEMPO,SIZRS,North
2015-08-03T04:00:28Z,1438574429,2015,4,0,215.167,215.167,71.06393,-141.90646,1010.5,-0.72,-999.0,yes,yes,no,300234062065260,UPTEMPO,PSC-UPTEMPO,SIZRS,North
2015-08-03T04:59:31Z,1438577971,2015,5,0,215.208,215.208,71.06531,-141.92055,1009.9,-0.68,-999.0,yes,yes,no,300234062065260,UPTEMPO,PSC-UPTEMPO,SIZRS,North
2015-08-03T06:00:00Z,1438581600,2015,6,0,215.25,215.25,71.06503,-141.93471,1008.8,-0.94,-999.0,yes,yes,no,300234062065260,UPTEMPO,PSC-UPTEMPO,SIZRS,North
2015-08-03T07:00:28Z,1438585229,2015,7,0,215.292,215.292,71.06435,-141.95609,1008.1,-0.68,-999.0,yes,yes,no,300234062065260,UPTEMPO,PSC-UPTEMPO,SIZRS,North
2015-08-03T07:59:31Z,1438588771,2015,8,0,215.333,215.333,71.0629,-141.98221,1007.7,-0.64,-999.0,yes,yes,no,300234062065260,UPTEMPO,PSC-UPTEMPO,SIZRS,North
2015-08-03T09:00:00Z,1438592400,2015,9,0,215.375,215.375,71.06242,-142.01163,1007.3,-0.61,-999.0,yes,yes,no,300234062065260,UPTEMPO,PSC-UPTEMPO,SIZRS,North
2015-08-03T10:00:28Z,1438596029,2015,10,0,215.417,215.417,71.06221,-142.04688,1006.6,-0.69,-999.0,yes,yes,no,300234062065260,UPTEMPO,PSC-UPTEMPO,SIZRS,North
2015-08-03T10:59:31Z,1438599571,2015,11,0,215.458,215.458,71.06293,-142.08945,1006.6,-0.84,-999.0,yes,yes,no,300234062065260,UPTEMPO,PSC-UPTEMPO,SIZRS,North
2015-08-03T12:00:00Z,1438603200,2015,12,0,215.5,215.5,71.06507,-142.13371,1007.0,-0.85,-999.0,yes,yes,no,300234062065260,UPTEMPO,PSC-UPTEMPO,SIZRS,North
2015-08-03T13:00:28Z,1438606829,2015,13,0,215.542,215.542,71.06844,-142.17099,1007.5,-0.92,-999.0,yes,yes,no,300234062065260,UPTEMPO,PSC-UPTEMPO,SIZRS,North
2015-08-03T13:59:31Z,1438610371,2015,14,0,215.583,215.583,71.07293,-142.20184,1007.9,-0.52,-999.0,yes,yes,no,300234062065260,UPTEMPO,PSC-UPTEMPO,SIZRS,North
2015-08-03T15:00:00Z,1438614000,2015,15,0,215.625,215.625,71.07823,-142.22334,1008.1,-0.78,-999.0,yes,yes,no,300234062065260,UPTEMPO,PSC-UPTEMPO,SIZRS,North
2015-08-03T16:00:28Z,1438617629,2015,16,0,215.667,215.667,71.08166,-142.2307,1007.9,-0.68,-999.0,yes,yes,no,300234062065260,UPTEMPO,PSC-UPTEMPO,SIZRS,North
2015-08-03T16:59:31Z,1438621171,2015,17,0,215.708,215.708,71.08337,-142.23834,1007.7,-0.49,-999.0,yes,yes,no,300234062065260,UPTEMPO,PSC-UPTEMPO,SIZRS,North
2015-08-03T18:00:00Z,1438624800,2015,18,0,215.75,215.75,71.08178,-142.24701,1007.7,-0.32,-999.0,yes,yes,no,300234062065260,UPTEMPO,PSC-UPTEMPO,SIZRS,North
2015-08-03T19:00:28Z,1438628429,2015,19,0,215.792,215.792,71.07771,-142.24795,1008.1,-0.48,-999.0,yes,yes,no,300234062065260,UPTEMPO,PSC-UPTEMPO,SIZRS,North
2015-08-03T19:59:31Z,1438631971,2015,20,0,215.833,215.833,71.07066,-142.25166,1008.8,-0.6,-999.0,yes,yes,no,300234062065260,UPTEMPO,PSC-UPTEMPO,SIZRS,North
2015-08-03T21:00:00Z,1438635600,2015,21,0,215.875,215.875,71.06176,-142.25987,1009.0,-0.69,-999.0,yes,yes,no,300234062065260,UPTEMPO,PSC-UPTEMPO,SIZRS,North
2015-08-03T22:00:28Z,1438639229,2015,22,0,215.917,215.917,71.05162,-142.276,1009.5,-0.61,-999.0,yes,yes,no,300234062065260,UPTEMPO,PSC-UPTEMPO,SIZRS,North
2015-08-03T22:59:31Z,1438642771,2015,23,0,215.958,215.958,71.04147,-142.30208,1010.0,-0.45,-999.0,yes,yes,no,300234062065260,UPTEMPO,PSC-UPTEMPO,SIZRS,North
2015-08-04T00:00:00Z,1438646400,2015,0,0,216.0,216.0,71.03017,-142.33244,1010.3,-0.45,-999.0,yes,yes,no,300234062065260,UPTEMPO,PSC-UPTEMPO,SIZRS,North
2015-08-04T01:00:28Z,1438650029,2015,1,0,216.042,216.042,71.02208,-142.36156,1010.5,-0.41,-999.0,yes,yes,no,300234062065260,UPTEMPO,PSC-UPTEMPO,SIZRS,North
2015-08-04T01:59:31Z,1438653571,2015,2,0,216.083,216.083,71.01595,-142.39214,1010.4,-0.5,-999.0,yes,yes,no,300234062065260,UPTEMPO,PSC-UPTEMPO,SIZRS,North
2015-08-04T03:00:00Z,1438657200,2015,3,0,216.125,216.125,71.01178,-142.42323,1010.6,-0.51,-999.0,yes,yes,no,300234062065260,UPTEMPO,PSC-UPTEMPO,SIZRS,North
2015-08-04T04:00:28Z,1438660829,2015,4,0,216.167,216.167,71.00994,-142.45306,1010.8,-0.43,-999.0,yes,yes,no,300234062065260,UPTEMPO,PSC-UPTEMPO,SIZRS,North